Time,TemperatureF,DewpointF,PressureIn,WindDirection,WindDirectionDegrees,WindSpeedMPH,WindSpeedGustMPH,Humidity,HourlyPrecipIn,Conditions,Clouds,dailyrainin,SolarRadiationWatts/m^2,SoftwareType,DateUTC
2013-02-22 00:02:00,30.0,27.0,-100.00,East,87,9.0,15.0,88,0.01,,,0.01,0.000000,,2013-02-22 05:02:00,
2013-02-22 00:32:00,30.0,28.0,-100.00,East,84,7.0,17.0,91,0.00,,,0.01,0.000000,,2013-02-22 05:32:00,
2013-02-22 00:42:00,30.0,28.0,-100.00,East,84,7.0,17.0,91,0.00,,,0.01,0.000000,,2013-02-22 05:42:00,
2013-02-22 00:52:00,30.0,28.0,-100.00,East,84,7.0,17.0,91,0.00,,,0.01,0.000000,,2013-02-22 05:52:00,
2013-02-22 01:02:00,30.0,28.0,-100.00,East,84,7.0,17.0,91,0.00,,,0.01,0.000000,,2013-02-22 06:02:00,
2013-02-22 01:32:00,30.0,28.0,-100.00,ESE,106,9.0,23.0,92,0.01,,,0.02,0.000000,,2013-02-22 06:32:00,
2013-02-22 01:42:00,30.0,28.0,-100.00,ESE,106,9.0,23.0,92,0.01,,,0.02,0.000000,,2013-02-22 06:42:00,
2013-02-22 01:52:00,30.0,28.0,-100.00,ESE,106,9.0,23.0,92,0.01,,,0.02,0.000000,,2013-02-22 06:52:00,
2013-02-22 02:01:00,30.0,28.0,-100.00,ESE,106,9.0,23.0,92,0.01,,,0.02,0.000000,,2013-02-22 07:01:00,
2013-02-22 02:32:00,31.0,30.0,-100.00,East,94,9.0,16.0,95,0.00,,,0.02,0.000000,,2013-02-22 07:32:00,
2013-02-22 02:42:00,31.0,30.0,-100.00,East,94,9.0,16.0,95,0.00,,,0.02,0.000000,,2013-02-22 07:42:00,
2013-02-22 02:52:00,31.0,30.0,-100.00,East,94,9.0,16.0,95,0.00,,,0.02,0.000000,,2013-02-22 07:52:00,
2013-02-22 03:01:00,31.0,30.0,-100.00,East,94,9.0,16.0,95,0.00,,,0.02,0.000000,,2013-02-22 08:01:00,
2013-02-22 03:32:00,31.0,30.0,-100.00,East,99,7.0,15.0,96,0.00,,,0.02,0.000000,,2013-02-22 08:32:00,
2013-02-22 03:42:00,31.0,30.0,-100.00,East,99,7.0,15.0,96,0.00,,,0.02,0.000000,,2013-02-22 08:42:00,
2013-02-22 03:52:00,31.0,30.0,-100.00,East,99,7.0,15.0,96,0.00,,,0.02,0.000000,,2013-02-22 08:52:00,
2013-02-22 04:03:00,31.0,30.0,-100.00,East,99,7.0,15.0,96,0.00,,,0.02,0.000000,,2013-02-22 09:03:00,
2013-02-22 04:32:00,32.0,31.0,-100.00,East,97,6.0,12.0,96,0.00,,,0.02,0.000000,,2013-02-22 09:32:00,
2013-02-22 04:42:00,32.0,31.0,-100.00,East,97,6.0,12.0,96,0.00,,,0.02,0.000000,,2013-02-22 09:42:00,
2013-02-22 04:52:00,32.0,31.0,-100.00,East,97,6.0,12.0,96,0.00,,,0.02,0.000000,,2013-02-22 09:52:00,
2013-02-22 05:01:00,32.0,31.0,-100.00,East,97,6.0,12.0,96,0.00,,,0.02,0.000000,,2013-02-22 10:01:00,
2013-02-22 05:32:00,32.0,31.0,-100.00,East,98,5.0,11.0,97,0.00,,,0.02,0.000000,,2013-02-22 10:32:00,
2013-02-22 05:42:00,32.0,31.0,-100.00,East,98,5.0,11.0,97,0.00,,,0.02,0.000000,,2013-02-22 10:42:00,
2013-02-22 05:52:00,32.0,31.0,-100.00,East,98,5.0,11.0,97,0.00,,,0.02,0.000000,,2013-02-22 10:52:00,
2013-02-22 06:01:00,32.0,31.0,-100.00,East,98,5.0,11.0,97,0.00,,,0.02,0.000000,,2013-02-22 11:01:00,
2013-02-22 06:32:00,32.0,31.0,-100.00,ESE,111,4.0,9.0,97,0.00,,,0.02,0.000000,,2013-02-22 11:32:00,
2013-02-22 06:42:00,32.0,31.0,-100.00,ESE,111,4.0,9.0,97,0.00,,,0.02,0.000000,,2013-02-22 11:42:00,
2013-02-22 06:52:00,32.0,31.0,-100.00,ESE,111,4.0,9.0,97,0.00,,,0.02,0.000000,,2013-02-22 11:52:00,
2013-02-22 07:02:00,32.0,31.0,-100.00,ESE,111,4.0,9.0,97,0.00,,,0.02,0.000000,,2013-02-22 12:02:00,
2013-02-22 07:32:00,33.0,32.0,-100.00,SSE,149,5.0,8.0,97,0.00,,,0.02,0.000000,,2013-02-22 12:32:00,
2013-02-22 07:42:00,33.0,32.0,-100.00,SSE,149,5.0,8.0,97,0.00,,,0.02,0.000000,,2013-02-22 12:42:00,
2013-02-22 07:52:00,33.0,32.0,-100.00,SSE,149,5.0,8.0,97,0.00,,,0.02,0.000000,,2013-02-22 12:52:00,
2013-02-22 08:02:00,33.0,32.0,-100.00,SSE,149,5.0,8.0,97,0.00,,,0.02,0.000000,,2013-02-22 13:02:00,
2013-02-22 08:32:00,35.0,34.0,-100.00,South,175,6.0,13.0,98,0.00,,,-99.99,10.000000,,2013-02-22 13:32:00,
2013-02-22 08:42:00,35.0,34.0,-100.00,South,175,6.0,13.0,98,0.00,,,-99.99,10.000000,,2013-02-22 13:42:00,
2013-02-22 08:52:00,35.0,34.0,-100.00,South,175,6.0,13.0,98,0.00,,,-99.99,10.000000,,2013-02-22 13:52:00,
2013-02-22 09:01:00,35.0,34.0,-100.00,South,175,6.0,13.0,98,0.00,,,-99.99,10.000000,,2013-02-22 14:01:00,
2013-02-22 09:32:00,39.0,38.0,-100.00,South,186,8.0,14.0,97,0.19,,,0.21,100.000000,,2013-02-22 14:32:00,
2013-02-22 09:42:00,39.0,38.0,-100.00,South,186,8.0,14.0,97,0.19,,,0.21,100.000000,,2013-02-22 14:42:00,
2013-02-22 09:53:00,39.0,38.0,-100.00,South,186,8.0,14.0,97,0.19,,,0.21,100.000000,,2013-02-22 14:53:00,
2013-02-22 10:02:00,39.0,38.0,-100.00,South,186,8.0,14.0,97,0.19,,,0.21,100.000000,,2013-02-22 15:02:00,
2013-02-22 10:32:00,43.0,40.0,-100.00,SSW,197,10.0,19.0,90,0.07,,,0.28,252.000000,,2013-02-22 15:32:00,
2013-02-22 10:42:00,43.0,40.0,-100.00,SSW,197,10.0,19.0,90,0.07,,,0.28,252.000000,,2013-02-22 15:42:00,
2013-02-22 10:52:00,43.0,40.0,-100.00,SSW,197,10.0,19.0,90,0.07,,,0.28,252.000000,,2013-02-22 15:52:00,
2013-02-22 11:02:00,43.0,40.0,-100.00,SSW,197,10.0,19.0,90,0.07,,,0.28,252.000000,,2013-02-22 16:02:00,
2013-02-22 11:32:00,47.0,44.0,-100.00,SSW,210,5.0,14.0,90,0.00,,,0.28,196.000000,,2013-02-22 16:32:00,
2013-02-22 11:42:00,47.0,44.0,-100.00,SSW,210,5.0,14.0,90,0.00,,,0.28,196.000000,,2013-02-22 16:42:00,
2013-02-22 11:52:00,47.0,44.0,-100.00,SSW,210,5.0,14.0,90,0.00,,,0.28,196.000000,,2013-02-22 16:52:00,
2013-02-22 12:01:00,47.0,44.0,-100.00,SSW,210,5.0,14.0,90,0.00,,,0.28,196.000000,,2013-02-22 17:01:00,
2013-02-22 12:32:00,51.0,46.0,-100.00,SW,226,8.0,16.0,84,0.00,,,0.28,196.000000,,2013-02-22 17:32:00,
2013-02-22 12:42:00,51.0,46.0,-100.00,SW,226,8.0,16.0,84,0.00,,,0.28,196.000000,,2013-02-22 17:42:00,
2013-02-22 12:52:00,51.0,46.0,-100.00,SW,226,8.0,16.0,84,0.00,,,0.28,196.000000,,2013-02-22 17:52:00,
2013-02-22 13:02:00,51.0,46.0,-100.00,SW,226,8.0,16.0,84,0.00,,,0.28,196.000000,,2013-02-22 18:02:00,
2013-02-22 13:32:00,54.0,46.0,-100.00,SW,226,13.0,24.0,75,0.00,,,-99.99,295.000000,,2013-02-22 18:32:00,
2013-02-22 13:42:00,54.0,46.0,-100.00,SW,226,13.0,24.0,75,0.00,,,-99.99,295.000000,,2013-02-22 18:42:00,
2013-02-22 13:52:00,54.0,46.0,-100.00,SW,226,13.0,24.0,75,0.00,,,-99.99,295.000000,,2013-02-22 18:52:00,
2013-02-22 14:01:00,54.0,46.0,-100.00,SW,226,13.0,24.0,75,0.00,,,-99.99,295.000000,,2013-02-22 19:01:00,
2013-02-22 14:31:00,59.0,47.0,-100.00,SW,215,16.0,27.0,64,0.00,,,0.28,602.000000,,2013-02-22 19:31:00,
2013-02-22 14:42:00,59.0,47.0,-100.00,SW,215,16.0,27.0,64,0.00,,,0.28,602.000000,,2013-02-22 19:42:00,
2013-02-22 14:52:00,59.0,47.0,-100.00,SW,215,16.0,27.0,64,0.00,,,0.28,602.000000,,2013-02-22 19:52:00,
2013-02-22 15:01:00,59.0,47.0,-100.00,SW,215,16.0,27.0,64,0.00,,,0.28,602.000000,,2013-02-22 20:01:00,
2013-02-22 15:32:00,58.0,45.0,-100.00,SW,214,13.0,31.0,61,0.00,,,0.28,554.000000,,2013-02-22 20:32:00,
2013-02-22 15:42:00,58.0,45.0,-100.00,SW,214,13.0,31.0,61,0.00,,,0.28,554.000000,,2013-02-22 20:42:00,
2013-02-22 15:52:00,58.0,45.0,-100.00,SW,214,13.0,31.0,61,0.00,,,0.28,554.000000,,2013-02-22 20:52:00,
2013-02-22 16:02:00,58.0,45.0,-100.00,SW,214,13.0,31.0,61,0.00,,,0.28,554.000000,,2013-02-22 21:02:00,
2013-02-22 16:32:00,57.0,43.0,-100.00,SSW,206,10.0,27.0,60,0.00,,,0.28,302.000000,,2013-02-22 21:32:00,
2013-02-22 16:42:00,57.0,43.0,-100.00,SSW,206,10.0,27.0,60,0.00,,,0.28,302.000000,,2013-02-22 21:42:00,
2013-02-22 16:52:00,57.0,43.0,-100.00,SSW,206,10.0,27.0,60,0.00,,,0.28,302.000000,,2013-02-22 21:52:00,
2013-02-22 17:01:00,57.0,43.0,-100.00,SSW,206,10.0,27.0,60,0.00,,,0.28,302.000000,,2013-02-22 22:01:00,
2013-02-22 17:32:00,58.0,44.0,-100.00,SW,218,7.0,20.0,60,0.00,,,0.28,180.000000,,2013-02-22 22:32:00,
2013-02-22 17:42:00,58.0,44.0,-100.00,SW,218,7.0,20.0,60,0.00,,,0.28,180.000000,,2013-02-22 22:42:00,
2013-02-22 17:52:00,58.0,44.0,-100.00,SW,218,7.0,20.0,60,0.00,,,0.28,180.000000,,2013-02-22 22:52:00,
2013-02-22 18:01:00,58.0,44.0,-100.00,SW,218,7.0,20.0,60,0.00,,,0.28,180.000000,,2013-02-22 23:01:00,
2013-02-22 18:32:00,56.0,44.0,-100.00,SSW,198,10.0,16.0,63,0.00,,,0.28,69.000000,,2013-02-22 23:32:00,
2013-02-22 18:42:00,56.0,44.0,-100.00,SSW,198,10.0,16.0,63,0.00,,,0.28,69.000000,,2013-02-22 23:42:00,
2013-02-22 18:52:00,56.0,44.0,-100.00,SSW,198,10.0,16.0,63,0.00,,,0.28,69.000000,,2013-02-22 23:52:00,
2013-02-22 19:02:00,56.0,44.0,-100.00,SSW,198,10.0,16.0,63,0.00,,,0.28,69.000000,,2013-02-23 00:02:00,
2013-02-22 19:32:00,53.0,44.0,-100.00,SSW,205,8.0,15.0,71,0.00,,,0.28,3.000000,,2013-02-23 00:32:00,
2013-02-22 19:42:00,53.0,44.0,-100.00,SSW,205,8.0,15.0,71,0.00,,,0.28,3.000000,,2013-02-23 00:42:00,
2013-02-22 19:52:00,53.0,44.0,-100.00,SSW,205,8.0,15.0,71,0.00,,,0.28,3.000000,,2013-02-23 00:52:00,
2013-02-22 20:01:00,53.0,44.0,-100.00,SSW,205,8.0,15.0,71,0.00,,,0.28,3.000000,,2013-02-23 01:01:00,
2013-02-22 20:32:00,52.0,44.0,-100.00,SSW,213,6.0,13.0,74,0.00,,,-99.99,0.000000,,2013-02-23 01:32:00,
2013-02-22 20:42:00,52.0,44.0,-100.00,SSW,213,6.0,13.0,74,0.00,,,-99.99,0.000000,,2013-02-23 01:42:00,
2013-02-22 20:52:00,52.0,44.0,-100.00,SSW,213,6.0,13.0,74,0.00,,,-99.99,0.000000,,2013-02-23 01:52:00,
2013-02-22 21:01:00,52.0,44.0,-100.00,SSW,213,6.0,13.0,74,0.00,,,-99.99,0.000000,,2013-02-23 02:01:00,
2013-02-22 21:32:00,51.0,44.0,-100.00,SW,216,8.0,16.0,77,0.00,,,0.28,0.000000,,2013-02-23 02:32:00,
2013-02-22 21:42:00,51.0,44.0,-100.00,SW,216,8.0,16.0,77,0.00,,,0.28,0.000000,,2013-02-23 02:42:00,
2013-02-22 21:52:00,51.0,44.0,-100.00,SW,216,8.0,16.0,77,0.00,,,0.28,0.000000,,2013-02-23 02:52:00,
2013-02-22 22:02:00,51.0,44.0,-100.00,SW,216,8.0,16.0,77,0.00,,,0.28,0.000000,,2013-02-23 03:02:00,
2013-02-22 22:32:00,50.0,44.0,-100.00,WSW,239,7.0,18.0,80,0.00,,,0.28,0.000000,,2013-02-23 03:32:00,
2013-02-22 22:42:00,50.0,44.0,-100.00,WSW,239,7.0,18.0,80,0.00,,,0.28,0.000000,,2013-02-23 03:42:00,
2013-02-22 22:52:00,50.0,44.0,-100.00,WSW,239,7.0,18.0,80,0.00,,,0.28,0.000000,,2013-02-23 03:52:00,
2013-02-22 23:01:00,50.0,44.0,-100.00,WSW,239,7.0,18.0,80,0.00,,,0.28,0.000000,,2013-02-23 04:01:00,
2013-02-22 23:32:00,49.0,44.0,-100.00,WNW,297,3.0,11.0,83,0.00,,,0.27,0.000000,,2013-02-23 04:32:00,
2013-02-22 23:42:00,49.0,44.0,-100.00,WNW,297,3.0,11.0,83,0.00,,,0.27,0.000000,,2013-02-23 04:42:00,
2013-02-22 23:52:00,49.0,44.0,-100.00,WNW,297,3.0,11.0,83,0.00,,,0.27,0.000000,,2013-02-23 04:52:00,